Time,TemperatureF,DewpointF,PressureIn,WindDirection,WindDirectionDegrees,WindSpeedMPH,WindSpeedGustMPH,Humidity,HourlyPrecipIn,Conditions,Clouds,dailyrainin,SolarRadiationWatts/m^2,SoftwareType,DateUTC
2013-09-10 00:03:00,78.0,75.0,-100.00,SE,133,0.0,3.0,90,0.00,,,0.00,0.000000,,2013-09-10 05:03:00,
2013-09-10 00:43:00,77.0,75.0,-100.00,SE,124,1.0,3.0,94,0.00,,,0.00,0.000000,,2013-09-10 05:43:00,
2013-09-10 00:53:00,77.0,75.0,-100.00,SE,124,1.0,3.0,94,0.00,,,0.00,0.000000,,2013-09-10 05:53:00,
2013-09-10 01:03:00,77.0,75.0,-100.00,SE,124,1.0,3.0,94,0.00,,,0.00,0.000000,,2013-09-10 06:03:00,
2013-09-10 01:43:00,76.0,74.0,-100.00,NW,314,1.0,3.0,92,0.00,,,0.00,0.000000,,2013-09-10 06:43:00,
2013-09-10 01:52:00,76.0,74.0,-100.00,NW,314,1.0,3.0,92,0.00,,,0.00,0.000000,,2013-09-10 06:52:00,
2013-09-10 02:01:00,76.0,74.0,-100.00,NW,314,1.0,3.0,92,0.00,,,0.00,0.000000,,2013-09-10 07:01:00,
2013-09-10 02:42:00,75.0,74.0,-100.00,NW,325,0.0,3.0,96,0.00,,,0.00,0.000000,,2013-09-10 07:42:00,
2013-09-10 02:52:00,75.0,74.0,-100.00,NW,325,0.0,3.0,96,0.00,,,0.00,0.000000,,2013-09-10 07:52:00,
2013-09-10 03:02:00,75.0,74.0,-100.00,NW,325,0.0,3.0,96,0.00,,,0.00,0.000000,,2013-09-10 08:02:00,
2013-09-10 03:42:00,75.0,74.0,-100.00,WNW,303,0.0,2.0,98,0.00,,,0.00,0.000000,,2013-09-10 08:42:00,
2013-09-10 03:52:00,75.0,74.0,-100.00,WNW,303,0.0,2.0,98,0.00,,,0.00,0.000000,,2013-09-10 08:52:00,
2013-09-10 04:02:00,75.0,74.0,-100.00,WNW,303,0.0,2.0,98,0.00,,,0.00,0.000000,,2013-09-10 09:02:00,
2013-09-10 04:43:00,74.0,74.0,-100.00,North,5,0.0,2.0,99,0.00,,,0.00,0.000000,,2013-09-10 09:43:00,
2013-09-10 04:54:00,74.0,74.0,-100.00,North,5,0.0,2.0,99,0.00,,,0.00,0.000000,,2013-09-10 09:54:00,
2013-09-10 05:03:00,74.0,74.0,-100.00,North,5,0.0,2.0,99,0.00,,,0.00,0.000000,,2013-09-10 10:03:00,
2013-09-10 05:43:00,73.0,73.0,-100.00,NE,44,0.0,0.0,100,0.00,,,0.00,0.000000,,2013-09-10 10:43:00,
2013-09-10 05:53:00,73.0,73.0,-100.00,NE,44,0.0,0.0,100,0.00,,,0.00,0.000000,,2013-09-10 10:53:00,
2013-09-10 06:03:00,73.0,73.0,-100.00,NE,44,0.0,0.0,100,0.00,,,0.00,0.000000,,2013-09-10 11:03:00,
2013-09-10 09:42:00,78.0,73.0,-100.00,SW,217,3.0,7.0,86,-99.99,,,0.00,135.000000,,2013-09-10 14:42:00,
2013-09-10 09:52:00,78.0,73.0,-100.00,SW,217,3.0,7.0,86,-99.99,,,0.00,135.000000,,2013-09-10 14:52:00,
2013-09-10 10:02:00,78.0,73.0,-100.00,SW,217,3.0,7.0,86,-99.99,,,0.00,135.000000,,2013-09-10 15:02:00,
2013-09-10 10:43:00,76.0,72.0,-100.00,SSE,147,3.0,6.0,87,0.00,,,0.00,62.000000,,2013-09-10 15:43:00,
2013-09-10 10:54:00,76.0,72.0,-100.00,SSE,147,3.0,6.0,87,0.00,,,0.00,62.000000,,2013-09-10 15:54:00,
2013-09-10 11:03:00,76.0,72.0,-100.00,SSE,147,3.0,6.0,87,0.00,,,0.00,62.000000,,2013-09-10 16:03:00,
2013-09-10 11:43:00,74.0,72.0,-100.00,ESE,112,2.0,8.0,94,0.03,,,0.03,36.000000,,2013-09-10 16:43:00,
2013-09-10 11:53:00,74.0,72.0,-100.00,ESE,112,2.0,8.0,94,0.03,,,0.03,36.000000,,2013-09-10 16:53:00,
2013-09-10 12:03:00,74.0,72.0,-100.00,ESE,112,2.0,8.0,94,0.03,,,0.03,36.000000,,2013-09-10 17:03:00,
2013-09-10 12:43:00,76.0,73.0,-100.00,East,99,3.0,9.0,91,0.01,,,0.04,162.000000,,2013-09-10 17:43:00,
2013-09-10 12:53:00,76.0,73.0,-100.00,East,99,3.0,9.0,91,0.01,,,0.04,162.000000,,2013-09-10 17:53:00,
2013-09-10 13:02:00,76.0,73.0,-100.00,East,99,3.0,9.0,91,0.01,,,0.04,162.000000,,2013-09-10 18:02:00,
2013-09-10 13:43:00,80.0,74.0,-100.00,ENE,77,3.0,7.0,82,0.00,,,0.04,350.000000,,2013-09-10 18:43:00,
2013-09-10 13:52:00,80.0,74.0,-100.00,ENE,77,3.0,7.0,82,0.00,,,0.04,350.000000,,2013-09-10 18:52:00,
2013-09-10 14:02:00,80.0,74.0,-100.00,ENE,77,3.0,7.0,82,0.00,,,0.04,350.000000,,2013-09-10 19:02:00,
2013-09-10 14:42:00,81.0,76.0,-100.00,South,173,3.0,7.0,84,0.00,,,0.04,334.000000,,2013-09-10 19:42:00,
2013-09-10 14:52:00,81.0,76.0,-100.00,South,173,3.0,7.0,84,0.00,,,0.04,334.000000,,2013-09-10 19:52:00,
2013-09-10 15:02:00,81.0,76.0,-100.00,South,173,3.0,7.0,84,0.00,,,0.04,334.000000,,2013-09-10 20:02:00,
2013-09-10 15:42:00,86.0,74.0,-100.00,SSE,153,2.0,6.0,67,0.00,,,-99.99,471.000000,,2013-09-10 20:42:00,
2013-09-10 15:52:00,86.0,74.0,-100.00,SSE,153,2.0,6.0,67,0.00,,,-99.99,471.000000,,2013-09-10 20:52:00,
2013-09-10 16:02:00,86.0,74.0,-100.00,SSE,153,2.0,6.0,67,0.00,,,-99.99,471.000000,,2013-09-10 21:02:00,
2013-09-10 16:44:00,89.0,73.0,-100.00,SSE,160,2.0,5.0,60,0.00,,,0.04,646.000000,,2013-09-10 21:44:00,
2013-09-10 16:54:00,89.0,73.0,-100.00,SSE,160,2.0,5.0,60,0.00,,,0.04,646.000000,,2013-09-10 21:54:00,
2013-09-10 17:04:00,89.0,73.0,-100.00,SSE,160,2.0,5.0,60,0.00,,,0.04,646.000000,,2013-09-10 22:04:00,
2013-09-10 17:42:00,90.0,75.0,-100.00,SSE,164,3.0,6.0,62,0.00,,,0.04,551.000000,,2013-09-10 22:42:00,
2013-09-10 17:54:00,90.0,75.0,-100.00,SSE,164,3.0,6.0,62,0.00,,,0.04,551.000000,,2013-09-10 22:54:00,
2013-09-10 18:03:00,90.0,75.0,-100.00,SSE,164,3.0,6.0,62,0.00,,,0.04,551.000000,,2013-09-10 23:03:00,
2013-09-10 18:42:00,86.0,78.0,-100.00,SSE,150,0.0,5.0,76,0.00,,,0.04,192.000000,,2013-09-10 23:42:00,
2013-09-10 18:53:00,86.0,78.0,-100.00,SSE,150,0.0,5.0,76,0.00,,,0.04,192.000000,,2013-09-10 23:53:00,
2013-09-10 19:02:00,86.0,78.0,-100.00,SSE,150,0.0,5.0,76,0.00,,,0.04,192.000000,,2013-09-11 00:02:00,
2013-09-10 19:42:00,82.0,78.0,-100.00,SE,137,0.0,0.0,88,0.00,,,0.04,38.000000,,2013-09-11 00:42:00,
2013-09-10 19:52:00,82.0,78.0,-100.00,SE,137,0.0,0.0,88,0.00,,,0.04,38.000000,,2013-09-11 00:52:00,
2013-09-10 20:02:00,82.0,78.0,-100.00,SE,137,0.0,0.0,88,0.00,,,0.04,38.000000,,2013-09-11 01:02:00,
2013-09-10 20:42:00,80.0,75.0,-100.00,SE,134,1.0,3.0,86,0.00,,,0.04,1.000000,,2013-09-11 01:42:00,
2013-09-10 20:53:00,80.0,75.0,-100.00,SE,134,1.0,3.0,86,0.00,,,0.04,1.000000,,2013-09-11 01:53:00,
2013-09-10 21:02:00,80.0,75.0,-100.00,SE,134,1.0,3.0,86,0.00,,,0.04,1.000000,,2013-09-11 02:02:00,
2013-09-10 21:43:00,79.0,75.0,-100.00,SSE,150,2.0,5.0,87,0.00,,,0.04,0.000000,,2013-09-11 02:43:00,
2013-09-10 21:52:00,79.0,75.0,-100.00,SSE,150,2.0,5.0,87,0.00,,,0.04,0.000000,,2013-09-11 02:52:00,
2013-09-10 22:02:00,79.0,75.0,-100.00,SSE,150,2.0,5.0,87,0.00,,,0.04,0.000000,,2013-09-11 03:02:00,
2013-09-10 22:45:00,78.0,73.0,-100.00,SE,129,2.0,7.0,84,0.00,,,0.04,0.000000,,2013-09-11 03:45:00,
2013-09-10 22:55:00,78.0,73.0,-100.00,SE,129,2.0,7.0,84,0.00,,,0.04,0.000000,,2013-09-11 03:55:00,
2013-09-10 23:04:00,78.0,73.0,-100.00,SE,129,2.0,7.0,84,0.00,,,0.04,0.000000,,2013-09-11 04:04:00,
2013-09-10 23:44:00,76.0,73.0,-100.00,SE,146,0.0,4.0,91,0.00,,,0.04,0.000000,,2013-09-11 04:44:00,
2013-09-10 23:54:00,76.0,73.0,-100.00,SE,146,0.0,4.0,91,0.00,,,0.04,0.000000,,2013-09-11 04:54:00,